Weather History for Rochelle, IL

Change the Weather History Date:

Sunday, October 13, 2013

  Actual Average (KRFD) Record (KRFD)
Temperature  
Mean Temperature 48 °F 53 °F  
Max Temperature 63 °F 64 °F 87 °F (1975)
Min Temperature 32 °F 41 °F 22 °F (1988)
Degree Days  
Heating Degree Days 18 13  
Month to date heating degree days 139  
Since 1 July heating degree days 270  
Cooling Degree Days 0 0  
Month to date cooling degree days 8  
Year to date cooling degree days 819  
Moisture  
Dew Point 35 °F    
Average Humidity 71    
Maximum Humidity 98    
Minimum Humidity 29    
Precipitation  
Precipitation 0.00 in 0.08 in 2.56 in (1960)
Month to date precipitation 1.15  
Year to date precipitation 30.16  
Snow  
Snow 0.00 in 0.00 in T in (1986)
Month to date snowfall 0.0  
Since 1 July snowfall 0.0  
Since 1 September snowfall 0.0  
Snow Depth -    
Sea Level Pressure  
Sea Level Pressure 30.35 in    
Wind  
Wind Speed 2 mph (NNW)    
Max Wind Speed 12 mph    
Max Gust Speed 16 mph    
Visibility 10 miles    
Events      
T = Trace of Precipitation, MM = Missing Value Source: NWS Daily Summary

Daily Weather History Graph

Daily Weather History Graph

Search for Another Location

Airport:

Trip Planner

Search our weather history database for the weather conditions in past years. The results will help you decide how hot, cold, wet, or windy it might be!

Date:

Astronomy

Oct. 13, 2013 Rise Set
Actual Time 7:06 AM CDT 6:17 PM CDT
Civil Twilight 6:38 AM CDT 6:45 PM CDT
Nautical Twilight 6:06 AM CDT 7:17 PM CDT
Astronomical Twilight 5:34 AM CDT 7:50 PM CDT
Moon 3:13 PM CDT (10/13) 1:11 AM CDT (10/13)
Length of Visible Light 12h 06m
Length of Day
11h 10m
Waxing Gibbous, 69% of the Moon is Illuminated
Oct 13
Waxing Gibbous
Oct 18
Full
Oct 26
Last Quarter
Nov 3
New
Nov 9
First Quarter

Hourly Weather History & Observations

Time (CDT) Temp. Windchill Dew Point Humidity Pressure Visibility Wind Dir Wind Speed Gust Speed Precip Events Conditions
12:15 AM 40.6 °F - 38.3 °F 91% 30.22 in 10.0 mi Calm Calm - N/A   Clear
12:35 AM 41.0 °F 37.1 °F 38.3 °F 90% 30.23 in 10.0 mi SW 5.8 mph - N/A   Clear
12:55 AM 40.1 °F - 37.8 °F 91% 30.23 in 10.0 mi Calm Calm - N/A   Clear
1:15 AM 39.0 °F - 37.4 °F 94% 30.23 in 10.0 mi Calm Calm - N/A   Clear
1:35 AM 38.5 °F - 37.0 °F 95% 30.23 in 10.0 mi Calm Calm - N/A   Clear
1:55 AM 37.4 °F - 36.0 °F 95% 30.23 in 10.0 mi Calm Calm - N/A   Clear
2:15 AM 37.4 °F - 36.0 °F 95% 30.23 in 10.0 mi Calm Calm - N/A   Clear
2:35 AM 36.5 °F 33.9 °F 35.2 °F 95% 30.24 in 10.0 mi SSE 3.5 mph - N/A   Clear
2:55 AM 36.7 °F 34.1 °F 35.6 °F 96% 30.25 in 10.0 mi South 3.5 mph - N/A   Clear
3:15 AM 36.5 °F 33.9 °F 35.2 °F 95% 30.26 in 10.0 mi SSW 3.5 mph - N/A   Clear
3:35 AM 35.1 °F 32.2 °F 33.8 °F 95% 30.26 in 10.0 mi West 3.5 mph - N/A   Clear
3:55 AM 36.0 °F - 35.1 °F 97% 30.27 in 10.0 mi Calm Calm - N/A   Clear
4:15 AM 35.2 °F - 34.2 °F 96% 30.28 in 10.0 mi Calm Calm - N/A   Clear
4:35 AM 35.4 °F - 34.3 °F 96% 30.29 in 10.0 mi Calm Calm - N/A   Clear
4:55 AM 34.7 °F - 33.8 °F 97% 30.29 in 10.0 mi Calm Calm - N/A   Clear
5:15 AM 34.0 °F - 33.1 °F 96% 30.30 in 10.0 mi Calm Calm - N/A   Clear
5:35 AM 33.8 °F - 32.9 °F 96% 30.31 in 10.0 mi Calm Calm - N/A   Clear
5:55 AM 34.0 °F - 33.3 °F 97% 30.32 in 10.0 mi Calm Calm - N/A   Clear
6:15 AM 33.8 °F - 32.9 °F 96% 30.33 in 10.0 mi Calm Calm - N/A   Clear
6:35 AM 33.1 °F - 32.4 °F 97% 30.33 in 10.0 mi Calm Calm - N/A   Clear
6:55 AM 32.9 °F - 32.2 °F 97% 30.34 in 10.0 mi Calm Calm - N/A   Clear
7:15 AM 33.4 °F - 32.9 °F 98% 30.35 in 7.0 mi Calm Calm - N/A   Clear
7:35 AM 34.2 °F - 33.4 °F 97% 30.36 in 10.0 mi Calm Calm - N/A   Clear
7:55 AM 35.6 °F - 34.9 °F 97% 30.36 in 10.0 mi Calm Calm - N/A   Clear
8:15 AM 38.3 °F - 37.4 °F 97% 30.37 in 10.0 mi Calm Calm - N/A   Clear
8:35 AM 42.3 °F - 40.6 °F 94% 30.37 in 10.0 mi Calm Calm - N/A   Clear
8:55 AM 45.1 °F - 40.6 °F 84% 30.38 in 10.0 mi Calm Calm - N/A   Clear
9:15 AM 48.2 °F - 41.4 °F 77% 30.39 in 10.0 mi Calm Calm - N/A   Clear
9:35 AM 51.4 °F - 41.7 °F 69% 30.39 in 10.0 mi NNW 3.5 mph - N/A   Clear
9:55 AM 54.5 °F - 43.0 °F 65% 30.40 in 10.0 mi North 4.6 mph - N/A   Clear
10:15 AM 56.3 °F - 40.5 °F 55% 30.40 in 10.0 mi North 6.9 mph - N/A   Clear
10:55 AM 58.1 °F - 37.6 °F 46% 30.40 in 10.0 mi NNW 8.1 mph - N/A   Clear
11:15 AM 59.0 °F - 36.7 °F 43% 30.40 in 10.0 mi NNW 11.5 mph - N/A   Clear
11:35 AM 59.4 °F - 36.7 °F 43% 30.40 in 10.0 mi WNW 6.9 mph - N/A   Clear
11:55 AM 60.3 °F - 36.5 °F 41% 30.40 in 10.0 mi NNW 10.4 mph - N/A   Clear
12:15 PM 60.4 °F - 37.0 °F 42% 30.40 in 10.0 mi NW 10.4 mph - N/A   Clear
12:35 PM 61.0 °F - 35.4 °F 38% 30.39 in 10.0 mi North 5.8 mph - N/A   Clear
12:55 PM 61.3 °F - 34.5 °F 37% 30.39 in 10.0 mi NNW 10.4 mph - N/A   Clear
1:15 PM 62.6 °F - 34.3 °F 35% 30.38 in 10.0 mi West 11.5 mph 16.1 mph N/A   Clear
1:35 PM 62.6 °F - 32.7 °F 33% 30.38 in 10.0 mi NW 4.6 mph - N/A   Clear
1:55 PM 63.1 °F - 32.2 °F 31% 30.37 in 10.0 mi West 9.2 mph - N/A   Clear
2:15 PM 62.6 °F - 32.7 °F 33% 30.37 in 10.0 mi West 6.9 mph - N/A   Clear
2:35 PM 63.3 °F - 33.3 °F 33% 30.36 in 10.0 mi NW 10.4 mph - N/A   Clear
2:55 PM 63.7 °F - 33.1 °F 32% 30.36 in 10.0 mi North 5.8 mph - N/A   Clear
3:15 PM 63.7 °F - 31.3 °F 30% 30.36 in 10.0 mi North 6.9 mph - N/A   Clear
3:35 PM 63.3 °F - 30.7 °F 29% 30.36 in 10.0 mi NNW 4.6 mph - N/A   Clear
3:55 PM 63.5 °F - 31.8 °F 31% 30.36 in 10.0 mi NNW 8.1 mph - N/A   Clear
4:15 PM 63.0 °F - 30.4 °F 29% 30.36 in 10.0 mi NE 8.1 mph - N/A   Clear
4:35 PM 62.8 °F - 32.0 °F 32% 30.36 in 10.0 mi North 9.2 mph - N/A   Clear
4:55 PM 62.1 °F - 30.7 °F 31% 30.36 in 10.0 mi North 3.5 mph - N/A   Clear
5:15 PM 61.2 °F - 32.4 °F 34% 30.36 in 10.0 mi North 3.5 mph - N/A   Clear
5:35 PM 59.7 °F - 32.0 °F 35% 30.36 in 10.0 mi North 4.6 mph - N/A   Clear
5:55 PM 57.2 °F - 33.4 °F 41% 30.36 in 10.0 mi NNE 4.6 mph - N/A   Clear
6:15 PM 53.8 °F - 34.0 °F 47% 30.36 in 10.0 mi NNE 4.6 mph - N/A   Clear
6:35 PM 48.7 °F - 36.0 °F 61% 30.37 in 10.0 mi NNE 3.5 mph - N/A   Clear
6:55 PM 46.9 °F - 36.0 °F 66% 30.37 in 10.0 mi NNE 3.5 mph - N/A   Clear
7:15 PM 45.7 °F - 36.1 °F 69% 30.37 in 10.0 mi Calm Calm - N/A   Clear
7:35 PM 45.7 °F - 36.1 °F 69% 30.37 in 10.0 mi Calm Calm - N/A   Clear
7:55 PM 45.3 °F - 36.3 °F 71% 30.38 in 10.0 mi Calm Calm - N/A   Clear
8:15 PM 44.4 °F - 35.6 °F 71% 30.38 in 10.0 mi Calm Calm - N/A   Clear
8:35 PM 42.8 °F - 36.0 °F 77% 30.39 in 10.0 mi Calm Calm - N/A   Clear
8:55 PM 42.6 °F - 35.6 °F 76% 30.39 in 10.0 mi Calm Calm - N/A   Clear
9:15 PM 41.7 °F - 36.0 °F 80% 30.39 in 10.0 mi Calm Calm - N/A   Clear
9:35 PM 39.9 °F - 35.8 °F 85% 30.40 in 10.0 mi Calm Calm - N/A   Clear
9:55 PM 38.3 °F - 35.6 °F 90% 30.40 in 10.0 mi Calm Calm - N/A   Clear
10:15 PM 37.4 °F - 34.9 °F 91% 30.40 in 10.0 mi Calm Calm - N/A   Clear
10:35 PM 36.5 °F - 34.7 °F 93% 30.41 in 10.0 mi Calm Calm - N/A   Clear
10:55 PM 36.5 °F - 34.5 °F 93% 30.41 in 10.0 mi Calm Calm - N/A   Clear
11:15 PM 36.0 °F - 34.2 °F 93% 30.41 in 10.0 mi Calm Calm - N/A   Clear
11:35 PM 35.4 °F - 33.8 °F 94% 30.41 in 10.0 mi Calm Calm - N/A   Clear
11:55 PM 35.8 °F - 34.5 °F 95% 30.40 in 10.0 mi Calm Calm - N/A   Clear